[ ตารางข้อมูล ] [ Min-Max ] [ วันนี้4 ] [ วันนี้2 ] [ เทียบ3วัน A ] [ เทียบ4วัน B ]   

วันนี้2   [ ◀ ช่วงเก่ากว่า ] [ ช่วงที่ 330 ] [ ช่วงใหม่กว่า ▶ ] [ ล่าสุด ]    [ 3 ชั่วโมง ] [ 6 ชั่วโมง ] [ 12 ชั่วโมง ] [ 24 ชั่วโมง ]   วันนี้2

อุณภูมิตู้ Knockdown4529  ราย 3 ชั่วโมง  ที่วัดได้ ในช่วงวันเวลา 30/03/2026 (04:17) ถึง 30/03/2026 (07:17) 
ความชื้นในตู้ Knockdown4529  ราย 3 ชั่วโมง  ที่วัดได้ ในช่วงวันเวลา 30/03/2026 (04:17) ถึง 30/03/2026 (07:17) 

 
DS18B20SHTC3 
IDDate d/m/Y & Timedata1
สูง
data2
ต่ำ
data3
นอก
temp
pcb
hum
pcb
Time
 7126  30/03/2026 07:13:53  27.7  27.7  26.7  27.4  72.6  07:13 
 7125  30/03/2026 07:09:11  27.7  27.7  26.7  27.6  72.6  07:09 
 7124  30/03/2026 07:04:29  27.7  27.7  26.5  27.6  72.5  07:04 
 7123  30/03/2026 06:59:47  27.8  27.7  26.5  27.6  72.6  06:59 
 7122  30/03/2026 06:55:05  27.8  27.7  26.4  27.7  72.7  06:55 
 7121  30/03/2026 06:50:24  27.8  27.8  26.3  27.6  72.6  06:50 
 7120  30/03/2026 06:45:43  27.8  27.8  26.4  27.7  72.7  06:45 
 7119  30/03/2026 06:41:01  27.8  27.8  26.5  27.5  72.5  06:41 
 7118  30/03/2026 06:36:20  27.8  27.8  26.5  27.6  72.6  06:36 
 7117  30/03/2026 06:31:37  27.8  27.8  26.6  27.7  72.7  06:31 
 7116  30/03/2026 06:26:55  27.8  27.8  26.6  27.6  72.6  06:26 
 7115  30/03/2026 06:22:12  27.8  27.8  26.5  27.7  72.5  06:22 
 7114  30/03/2026 06:17:31  27.8  27.8  26.7  27.7  72.5  06:17 
 7113  30/03/2026 06:12:49  27.9  27.8  26.6  27.6  72.6  06:12 
 7112  30/03/2026 06:08:07  27.9  27.8  26.5  27.7  72.5  06:08 
 7111  30/03/2026 06:03:25  27.9  27.9  26.4  27.6  72.6  06:03 
 7110  30/03/2026 05:58:43  27.9  27.9  26.5  27.8  72.7  05:58 
 7109  30/03/2026 05:54:01  27.9  27.9  26.5  27.6  72.7  05:54 
 7108  30/03/2026 05:49:20  27.9  27.9  26.4  27.7  72.6  05:49 
 7107  30/03/2026 05:44:38  27.9  27.9  26.4  27.7  72.5  05:44 
 7106  30/03/2026 05:39:56  27.9  27.9  26.5  27.7  72.5  05:39 
 7105  30/03/2026 05:35:14  27.9  27.9  26.6  27.8  72.5  05:35 
 7104  30/03/2026 05:30:31  28.0  27.9  26.7  27.7  72.5  05:30 
 7103  30/03/2026 05:25:49  28.0  27.9  26.8  27.8  72.5  05:25 

Data every 5 minute.


ใช้เวลาประมวลผล 0.00175 วินาที